Home   Weather   Nablus   Past weeks

Flag for Palestinian Territories Past Weather in Nablus, West Bank, Palestinian Territories — Yesterday and Last 2 Weeks

Now
68 °F

Sunny.


Feels Like: 68 °F
Forecast: 51 / 63 °F
Wind: 5 mph from East

Location: Ben Gurion International Airport

Current Time: Feb 28, 2017 at 9:37:56 am

Latest Report: Feb 28, 2017 at 8:50 am


Visibility: 10 mi

Pressure: 29.86 "Hg (28.06 "Hg at 534m altitude)

Humidity: 40%

Dew Point: 43 °F

Location of NablusLocation

Past Weather in Nablus — Graph

°F

Nablus Temperature Yesterday

Maximum temperature yesterday: 73 °F (at 2:20 pm)
Minimum temperature yesterday: 52 °F (at 12:50 am)
Average temperature yesterday: 60 °F

High & Low Weather Summary for the Past Weeks

 TemperatureHumidityPressure
High73 °F (Feb 27, 2:20 pm)100% (Feb 27, 6:35 am)30.39 "Hg (Feb 27, 6:35 am)
Low39 °F (Feb 19, 5:50 am)13% (Feb 19, 11:20 am)29.83 "Hg (Feb 28, 1:50 am)
Average54 °F69%30.13 "Hg
* Reported Feb 13 8:20 am — Feb 28 8:20 am, Nablus, Weather by CustomWeather, © 2017

Note: Actual official high and low records may vary slightly from our data, if they occured in-between our weather recording intervals... More about our weather records

Advertising

Nablus Weather History for the Previous 24 Hours

Scroll right to see more
 ConditionsComfort  
Time TempWeatherWind HumidityBarometerVisibility
8:20 am
Tue, Feb 28
64 °FSunny.6 mph46%29.86 "Hg10 mi
7:50 am63 °FSunny.10 mph52%29.86 "Hg10 mi
7:20 am59 °FSunny.8 mph63%29.89 "Hg10 mi
6:50 am57 °FSunny.8 mph77%29.86 "Hg10 mi
6:20 am59 °FSunny.9 mph72%29.89 "Hg10 mi
5:50 am57 °FClear.8 mph82%29.86 "Hg10 mi
5:20 am57 °FClear.1 mph77%29.86 "Hg10 mi
4:50 am55 °FClear.8 mph72%29.86 "Hg10 mi
4:20 am57 °FClear.8 mph63%29.86 "Hg10 mi
3:50 am55 °FClear.7 mph67%29.83 "Hg10 mi
3:20 am54 °FClear.6 mph77%29.83 "Hg10 mi
2:50 am55 °FClear.1 mph72%29.83 "Hg10 mi
2:20 am55 °FClear.1 mph72%29.83 "Hg10 mi
1:50 am57 °FClear.1 mph67%29.83 "Hg10 mi
1:20 am57 °FClear.3 mph72%29.86 "Hg10 mi
12:50 am57 °FClear.1 mph77%29.86 "Hg10 mi
12:20 am57 °FClear.1 mph77%29.86 "Hg10 mi
11:50 pm
Mon, Feb 27
57 °FClear.1 mph82%29.86 "Hg10 mi
11:20 pm57 °FClear.1 mph88%29.86 "Hg10 mi
10:50 pm57 °FClear.2 mph88%29.89 "Hg10 mi
10:20 pm57 °FClear.1 mph88%29.89 "Hg10 mi
9:50 pm59 °FClear.1 mph82%29.89 "Hg10 mi
9:20 pm61 °FClear.1 mph83%29.89 "Hg10 mi
8:50 pm61 °FClear.1 mph83%29.89 "Hg10 mi
8:20 pm61 °FClear.5 mph83%29.89 "Hg10 mi
7:20 pm64 °FClear.2 mph73%29.89 "Hg10 mi
6:50 pm64 °FClear.1 mph73%29.89 "Hg10 mi
6:20 pm64 °FClear.2 mph73%29.89 "Hg10 mi
5:50 pm66 °FClear.10 mph68%29.89 "Hg6 mi
5:20 pm66 °FClear.5 mph73%29.89 "Hg6 mi
4:50 pm68 °FClear.6 mph64%29.89 "Hg6 mi
4:20 pm68 °FClear.9 mph64%29.89 "Hg6 mi
3:50 pm68 °FClear.8 mph64%29.89 "Hg5 mi
3:20 pm70 °FClear.12 mph64%29.89 "Hg5 mi
2:50 pm72 °FClear.10 mph57%29.89 "Hg5 mi
2:20 pm73 °FClear.8 mph53%29.89 "Hg5 mi
1:50 pm72 °FClear.12 mph57%29.92 "Hg5 mi
1:20 pm72 °FClear.8 mph57%29.92 "Hg5 mi
12:50 pm70 °FClear.7 mph57%29.95 "Hg4 mi
12:20 pm70 °FClear.7 mph60%29.95 "Hg4 mi
11:50 am70 °FHaze.6 mph57%29.98 "Hg3 mi
11:20 am68 °FHaze.5 mph56%29.98 "Hg3 mi
10:50 am68 °FHaze.3 mph64%30.01 "Hg3 mi
10:20 am66 °FHaze.1 mph68%30.01 "Hg2 mi
9:50 am61 °FHaze.6 mph83%30.01 "Hg2 mi
9:35 am59 °FHaze.5 mph88%30.01 "Hg2 mi
Weather by CustomWeather, © 2017

See weather overviewHow to use our weather pages